Current Version              Previous Version:    01  02  03  04  05  06  07  08  09  10  11  12  13  14  15  16  17  18  19  20  21  22  23  24  25  26  27  28  29  30  
   31  32  33  34  35  36  37  38  39  40  41  42  43  44  45  46  47  48  49  50  51  52  53  54  55  56  57  58  59  60  

[Printable]
571
ASUS44 KFWD 260210
RWRTX
NORTH TEXAS HOURLY WEATHER ROUNDUP
NATIONAL WEATHER SERVICE FORT WORTH TX
900 PM CDT FRI JUL 25 2014

NOTE: "FAIR" INDICATES FEW OR NO CLOUDS BELOW 12,000 FEET WITH NO
SIGNIFICANT WEATHER AND/OR OBSTRUCTIONS TO VISIBILITY.

TXZ118-119-260300-
DALLAS/FORT WORTH METROPLEX

CITY           SKY/WX    TMP DP  RH WIND       PRES   REMARKS
DFW AIRPORT    PTCLDY    94  66  39 S13       29.91R HX  97
DALLAS LOVE    PTCLDY    92  70  48 SE17      29.91R HX  97
FTW MEACHAM    CLEAR     91  65  41 S5        29.91R HX  93
DAL-EXECUTIVE  CLEAR     92  68  45 SE14      29.92R HX  96
FTW-ALLIANCE   PTCLDY    87  63  44 S6        29.90S
FTW-NAS-JRB    PTCLDY    94  63  35 S8        29.95R HX  95
FTW-SPINKS     CLEAR     89  66  45 S7        29.94R HX  91
ARLINGTON      CLEAR     92  65  40 S7        29.92R HX  94
GRAND PRAIRIE  CLEAR     92  64  38 SE8       29.93R HX  93
ADDISON        PTCLDY    91  66  43 S12       29.92R HX  94
LANCASTER      CLEAR     88  67  50 SE9       29.94R HX  91
$$

TXZ091>094-102>105-117-120-121-131>134-260300-
NORTH CENTRAL TEXAS

CITY           SKY/WX    TMP DP  RH WIND       PRES   REMARKS
SHRMAN/DENISON CLEAR     90  66  45 SE7       29.93R HX  92
GAINESVILLE    CLEAR     86  68  55 SE5       29.94R
BOWIE          CLEAR     84  69  60 SE3       29.92R
BRIDGEPORT     CLEAR     89  60  37 S7        29.93R
DECATUR        CLEAR     90  63  40 S10       29.93R HX  90
DENTON         CLEAR     86  66  51 S8        29.90S
MCKINNEY       CLEAR     89  71  55 S12       29.92R HX  95
GREENVILLE     CLEAR     86  70  58 SE7       29.94R HX  90
ROCKWALL       CLEAR     88  72  58 SE8       29.92R HX  94
TERRELL        CLEAR     88  70  55 SE12      29.94R HX  93
WAXAHACHIE     CLEAR     89  64  43 SE9       29.95R HX  90
CLEBURNE       CLEAR     88  68  51 S7        29.96R HX  91
GRANBURY       CLEAR     92  66  42 SE9       29.94R HX  95
$$

TXZ083>090-098>101-113>116-127>130-139>142-154-155-260300-
WESTERN NORTH TEXAS

CITY           SKY/WX    TMP DP  RH WIND       PRES   REMARKS
WICHITA FALLS  CLEAR     89  67  47 SE12      29.88R HX  92
WF-KICKAPOO    CLEAR     89  64  42 SE7       29.90R HX  90
VERNON           N/A    N/A N/A N/A S8        29.89R
ABILENE        CLEAR     90  62  39 SE9       29.96R HX  90
ABILENE-DYESS  CLEAR     89  64  43 SE9       29.95R
BRECKENRIDGE   CLEAR     93  58  30 S9        29.93R HX  92
GRAHAM         CLEAR     93  59  32 SE9       29.89R HX  92
MINERAL WELLS  CLEAR     89  64  43 SE8       29.92R HX  90
STEPHENVILLE   CLEAR     88  63  43 SE5       29.98S
COMANCHE       CLEAR     87  63  44 SE7       29.97R
BROWNWOOD      CLEAR     86  63  45 SE6       29.96R
COLEMAN        CLEAR     88  63  42 SE7       29.97R
BRADY          CLEAR     88  63  42 E6        29.97S
$$

TXZ143>147-156>162-174-175-260300-
CENTRAL TEXAS

CITY           SKY/WX    TMP DP  RH WIND       PRES   REMARKS
WACO           CLEAR     89  68  49 SE12      29.94R HX  93
WACO-TSTC      CLEAR     88  68  51 S7        29.95R HX  91
WACO-MCGREGOR  CLEAR     88  64  45 S7        29.96R
HILLSBORO      CLEAR     88  65  45 SE8       29.95R HX  90
CORSICANA      CLEAR     87  72  60 SE9       29.96R HX  93
MEXIA          CLEAR     83  71  67 SE5       29.95S
CAMERON        CLEAR     86  72  62 SE5       29.95R HX  92
TEMPLE         CLEAR     84  66  54 SE8       29.96R
KILLEEN        CLEAR     86  66  51 E10       29.96R
KILLEEN-SKYLRK CLEAR     88  66  48 SE8       29.96R HX  90
FORT HOOD      CLEAR     89  69  51 E7        29.96R HX  93
GATESVILLE     CLEAR     88  68  51 SE5       29.98R HX  91
HAMILTON       CLEAR     86  64  46 SE9       29.98R
LAMPASAS       CLEAR     88  69  52 SE3       29.97R HX  92
$$

TXZ095>097-106>112-122>126-135>138-148>153-164>167-260300-
EAST TEXAS

CITY           SKY/WX    TMP DP  RH WIND       PRES   REMARKS
PARIS          CLEAR     82  70  65 SE8       29.95R
SULPHUR SPRNGS CLEAR     87  72  61 S8        29.96S HX  92
CLARKSVILLE    PTCLDY    84  74  72 SE5       29.95R HX  91
MOUNT PLEASANT CLEAR     82  74  76 SE3       29.96S
GILMER         CLEAR     84  75  74 CALM      29.98R HX  92
MINEOLA        CLEAR     86  73  66 S3        29.96S HX  93
TYLER          PTCLDY    83  72  69 S5        29.96S
LONGVIEW       PTCLDY    81  75  82 S3        29.96R
MARSHALL       PTCLDY    82  78  89 CALM      29.98S HX  90
ATHENS         CLEAR     81  73  78 SE5       29.96R
JACKSONVILLE   PTCLDY    83  72  67 CALM      30.01S
HENDERSON      PTCLDY    81  74  80 CALM      29.98R
NACOGDOCHES    CLEAR     81  75  83 CALM      29.98S
LUFKIN         CLEAR     85  78  80 CALM      29.98R HX  96
$$

SUPPLEMENTAL OBSERVATIONS (CENTRAL)

CITY           SKY/WX    TMP DP  RH WIND       PRES   REMARKS
CADDO GRASSLND   N/A     84  70  61 S5          N/A
PAT MAYSE LAKE   N/A     84  72  65 SE8         N/A
PALESTINE        N/A     81  75  83 CALM        N/A
MCGREGOR         N/A     88  68  51 S9          N/A  HX  91
TEMPLE           N/A     84  68  58 SE5         N/A
$$

SUPPLEMENTAL OBSERVATIONS (WEST)

CITY           SKY/WX    TMP DP  RH WIND       PRES   REMARKS
MILLERS CREEK    N/A     91  54  27 S10         N/A
POSSUM KINGDOM   N/A     91  57  31 SE6         N/A  HX  90
LBJ GRASSLAND    N/A     90  64  43 SE8         N/A  HX  91
GRANBURY         N/A     91  66  43 SE9         N/A  HX  94
HAMBY            N/A     90  59  35 S6G15       N/A
IVIE RESERVOIR   N/A     90  61  37 SE9         N/A
COLORADO BEND    N/A     86  63  45 SE6G14      N/A
$$

SUPPLEMENTAL OBSERVATIONS (EAST)

CITY           SKY/WX    TMP DP  RH WIND       PRES   REMARKS
CLARKSVILLE      N/A     82  75  78 SE5         N/A
TEXARKANA        N/A     79  75  89 CALM        N/A
LINDEN           N/A     81  75  83 CALM        N/A
GILMER           N/A     82  73  74 SW1         N/A
HENDERSON        N/A     82  73  74 SE1         N/A
LUFKIN           N/A     82  77  83 MISG        N/A  HX  91
N SABINE NF      N/A     79  73  83 MISG        N/A
S SABINE NF      N/A     79  73  83 E1          N/A
$$

SUPPLEMENTAL OBSERVATIONS ARE A COLLECTION OF AUTOMATED INSTRUMENTS
THAT ARE MAINTAINED BY A VARIETY OF FEDERAL AND STATE AGENCIES.
CERTAIN ELEMENTS...SUCH AS HUMIDITY VALUES AND SUSTAINED WIND
SPEEDS...MAY BE APPROXIMATED.